Minot, ND

12:08 PM CDT on June 28, 2017 (GMT -0500)
Minot International

Weather History for KMOT - May, 2014

Change the Weather History Date:

Thursday, May 29, 2014

  Actual Average Record
Temperature  
Mean Temperature 77 °F 59 °F  
Max Temperature 93 °F 70 °F 97 °F (1988)
Min Temperature 60 °F 47 °F 24 °F (1930)
Cooling Degree Days 12 1  
Month to date cooling degree days 39 7  
Year to date cooling degree days 39 8  
Growing Degree Days 26 (Base 50)    
Moisture  
Dew Point 57 °F    
Average Humidity 57    
Maximum Humidity 84    
Minimum Humidity 30    
Precipitation  
Precipitation T in 0.10 in 0.85 in (1962)
Month to date precipitation 1.60 2.30  
Year to date precipitation 3.81 5.19  
Sea Level Pressure  
Sea Level Pressure 29.82 in    
Wind  
Wind Speed 21 mph (SSE)    
Max Wind Speed 39 mph    
Max Gust Speed 54 mph    
Visibility 10 miles    
Events Rain , Thunderstorm    
T = Trace of Precipitation, MM = Missing Value Source: NWS Daily Summary

Daily Weather History Graph

Daily Weather History Graph

Search for Another Location

Airport or City:

Trip Planner

Search our weather history database for the weather conditions in past years. The results will help you decide how hot, cold, wet, or windy it might be!

Date:

Astronomy

May. 29, 2014 Rise Set
Actual Time 5:50 AM CDT 9:34 PM CDT
Civil Twilight 5:11 AM CDT 10:14 PM CDT
Nautical Twilight 4:17 AM CDT 11:08 PM CDT
Astronomical Twilight 2:59 AM CDT 12:27 AM CDT
Moon 6:50 AM CDT (5/29) 10:21 PM CDT (5/29)
Length of Visible Light 17h 03m
Length of Day
15h 44m
New Moon, 1% of the Moon is Illuminated
May 29
New Moon
Jun 5
First Quarter
Jun 12
Full
Jun 19
Last Quarter
Jun 27
New

Hourly Weather History & Observations

Time (CDT) Temp. Heat Index Dew Point Humidity Pressure Visibility Wind Dir Wind Speed Gust Speed Precip Events Conditions
12:54 AM 69.8 °F - 57.2 °F 64% 29.91 in 10.0 mi ESE 9.2 mph - N/A   Clear
1:54 AM 68.0 °F - 55.9 °F 65% 29.91 in 10.0 mi East 9.2 mph - N/A   Clear
2:54 AM 66.9 °F - 55.9 °F 68% 29.89 in 10.0 mi ESE 11.5 mph - N/A   Clear
3:54 AM 68.0 °F - 57.0 °F 68% 29.86 in 10.0 mi SE 15.0 mph 25.3 mph N/A   Clear
4:54 AM 71.1 °F - 55.9 °F 59% 29.83 in 10.0 mi ESE 17.3 mph 24.2 mph N/A   Clear
5:54 AM 70.0 °F - 55.9 °F 61% 29.84 in 10.0 mi SSE 15.0 mph 27.6 mph N/A   Clear
6:54 AM 70.0 °F - 55.9 °F 61% 29.82 in 10.0 mi SE 15.0 mph 28.8 mph N/A   Clear
7:54 AM 73.0 °F - 55.9 °F 55% 29.78 in 10.0 mi SSE 31.1 mph 43.7 mph 0.00 in Rain Light Rain
8:54 AM 78.1 °F - 55.0 °F 45% 29.75 in 10.0 mi SSE 36.8 mph 48.3 mph 0.00 in Rain Light Rain
9:54 AM 79.0 °F - 54.0 °F 42% 29.74 in 10.0 mi SSE 29.9 mph 47.2 mph 0.00 in Rain Light Rain
11:12 AM 84.0 °F 83.0 °F 55.9 °F 38% 29.80 in 10.0 mi South 31.1 mph 42.6 mph 0.00 in Rain Light Rain
11:54 AM 84.9 °F 83.7 °F 55.9 °F 37% 29.76 in 10.0 mi South 33.4 mph 44.9 mph 0.00 in Rain Light Rain
12:54 PM 84.9 °F 83.6 °F 55.0 °F 36% 29.76 in 10.0 mi SSE 32.2 mph 54.1 mph 0.00 in Rain Light Rain
1:54 PM 87.1 °F 85.3 °F 55.0 °F 33% 29.73 in 10.0 mi SSE 31.1 mph 47.2 mph 0.00 in   Clear
2:54 PM 91.9 °F 90.0 °F 55.0 °F 29% 29.74 in 10.0 mi South 33.4 mph 44.9 mph 0.00 in   Clear
3:54 PM 91.4 °F 89.9 °F 57.2 °F 31% 29.77 in 10.0 mi SSE 31.1 mph 46.0 mph N/A   Clear
4:54 PM 91.4 °F 89.9 °F 57.2 °F 31% 29.78 in 10.0 mi South 33.4 mph 42.6 mph N/A   Clear
5:54 PM 88.0 °F 86.7 °F 57.0 °F 35% 29.73 in 10.0 mi South 21.9 mph 34.5 mph N/A   Clear
6:12 PM 88.0 °F 86.7 °F 57.0 °F 35% 29.77 in 10.0 mi South 20.7 mph 29.9 mph N/A Thunderstorm Partly Cloudy
6:25 PM 84.0 °F 83.8 °F 59.0 °F 43% 29.81 in 10.0 mi SW 17.3 mph 25.3 mph N/A Thunderstorm Thunderstorm
6:54 PM 80.1 °F 81.5 °F 63.0 °F 56% 29.79 in 10.0 mi SW 8.1 mph - N/A   Mostly Cloudy
7:54 PM 82.0 °F 83.1 °F 63.0 °F 52% 29.75 in 10.0 mi South 10.4 mph - N/A   Partly Cloudy
8:34 PM 73.0 °F - 61.0 °F 66% 29.86 in 10.0 mi WNW 29.9 mph 40.3 mph N/A   Partly Cloudy
8:54 PM 69.1 °F - 57.9 °F 68% 29.86 in 10.0 mi WNW 23.0 mph 35.7 mph N/A   Clear
9:54 PM 63.0 °F - 57.9 °F 84% 29.91 in 10.0 mi WNW 16.1 mph 23.0 mph N/A   Mostly Cloudy
10:18 PM 62.1 °F - 55.0 °F 78% 29.90 in 10.0 mi NW 19.6 mph 25.3 mph N/A Thunderstorm Overcast
10:38 PM 62.1 °F - 55.0 °F 78% 29.93 in 10.0 mi North 12.7 mph - N/A Thunderstorm Thunderstorm
10:54 PM 60.1 °F - 55.9 °F 86% 29.83 in 7.0 mi NE 13.8 mph 25.3 mph N/A Thunderstorm Thunderstorm
11:37 PM 60.1 °F - 55.9 °F 86% 29.97 in 10.0 mi East 4.6 mph - N/A Thunderstorm Mostly Cloudy
11:54 PM 60.1 °F - 55.0 °F 83% 29.95 in 10.0 mi NNW 5.8 mph - N/A Thunderstorm Scattered Clouds